{"data":{"norad_id":56101,"intl_designator":"2023-046J","name":"STARLINK-6095","alt_names":[],"object_type":"PAYLOAD","status":"ACTIVE","operator":null,"country":"US","launch_date":"2023-03-29","launch_site_code":"AFETR","launch_vehicle":null,"mission":null,"orbit_class":"UNKNOWN","rcs_meters":null,"size_class":null,"mass_kg":null,"dimensions":null,"purposes":["comms"],"wikipedia_slug":null,"has_3d_model":false,"image_url":null,"decayed_at":null,"tle_current":{"epoch":"2026-09-19T02:14:38.965056Z","epoch_age_seconds":227701,"freshness":"STALE","line1":"1 56101U 23046J   26262.09350654  .00000179  00000+0  16049-4 0  9998","line2":"2 56101  43.0024 149.0138 0001576 268.9624  91.1047 15.27575195191617","mean_motion":15.27575195,"eccentricity":0.0001576,"inclination_deg":43.0024,"raan_deg":149.0138,"arg_perigee_deg":268.9624,"mean_anomaly_deg":91.1047,"bstar":1.6049e-5,"rev_number":19161,"period_min":94.267045230464,"perigee_km":481.98215877968,"apogee_km":484.14480917223,"semimajor_km":6861.200483976,"source":"CELESTRAK","updated_at":"2026-09-21T09:00:33.363023Z"}}}